When you browse on this site, cookies collect data to enhance your experience and personalize the content and advertising you see.
Visit our Privacy Policy to learn more. By continuing to use the site, you agree to this use of cookies and data.
  • In Latvia
  • List of Countries
  • For 7 days
  • Water Temperature
  • Weather Map
  • Weather Widgets
  • user-avatar
    Login

    Hourly Weather Mokhotlong

    Today, 2 April, Thursday

    Time Temperature Precipitation Wind Pressure Humidity
    00:00 +9°C° 0 mm 0 mps 589 mmHg 92%
    01:00 +8°C° 0 mm 0 mps 588 mmHg 93%
    02:00 +9°C° 0 mm 1 mps 588 mmHg 93%
    03:00 +7°C° 0 mm 0 mps 588 mmHg 93%
    04:00 +6°C° 0 mm 0 mps 587 mmHg 94%
    05:00 +6°C° 0 mm 0 mps 587 mmHg 95%
    06:00 +7°C° 0 mm 0 mps 588 mmHg 91%
    07:00 +8°C° 0 mm 0 mps 588 mmHg 88%
    08:00 +9°C° 0 mm 0 mps 590 mmHg 83%
    09:00 +10°C° 0 mm 0 mps 590 mmHg 76%
    10:00 +13°C° 0 mm 1 mps 590 mmHg 68%
    11:00 +14°C° 0 mm 1 mps 591 mmHg 61%
    12:00 +15°C° 0 mm 1 mps 590 mmHg 56%
    13:00 +16°C° 0 mm 1 mps 590 mmHg 50%
    14:00 +18°C° 0 mm 1 mps 590 mmHg 45%
    15:00 +17°C° 0 mm 2 mps 589 mmHg 48%
    16:00 +16°C° 0 mm 2 mps 589 mmHg 50%
    17:00 +16°C° 0 mm 2 mps 589 mmHg 52%
    18:00 +14°C° 0 mm 2 mps 588 mmHg 60%
    19:00 +12°C° 0 mm 1 mps 588 mmHg 68%
    20:00 +10°C° 0 mm 1 mps 587 mmHg 76%
    21:00 +10°C° 0 mm 1 mps 587 mmHg 76%
    22:00 +10°C° 0 mm 1 mps 587 mmHg 76%
    23:00 +10°C° 0 mm 1 mps 588 mmHg 76%

    Tomorrow, 3 April, Friday

    Time Temperature Precipitation Wind Pressure Humidity
    00:00 +9°C° 0 mm 1 mps 587 mmHg 79%
    01:00 +8°C° 0 mm 0 mps 587 mmHg 81%
    02:00 +8°C° 0 mm 0 mps 587 mmHg 83%
    03:00 +8°C° 0 mm 0 mps 587 mmHg 83%
    04:00 +8°C° 0 mm 0 mps 587 mmHg 84%
    05:00 +9°C° 0 mm 1 mps 587 mmHg 84%
    06:00 +9°C° 0 mm 0 mps 587 mmHg 79%
    07:00 +10°C° 0 mm 0 mps 588 mmHg 74%
    08:00 +12°C° 0 mm 0 mps 589 mmHg 69%
    09:00 +14°C° 0 mm 1 mps 589 mmHg 64%
    10:00 +15°C° 0 mm 1 mps 589 mmHg 59%
    11:00 +16°C° 0 mm 1 mps 590 mmHg 55%
    12:00 +16°C° 0.1 mm 2 mps 589 mmHg 57%
    13:00 +16°C° 0.1 mm 2 mps 588 mmHg 60%
    14:00 +16°C° 0.1 mm 2 mps 588 mmHg 62%
    15:00 +15°C° 0.3 mm 2 mps 587 mmHg 67%
    16:00 +14°C° 0.3 mm 2 mps 587 mmHg 73%
    17:00 +13°C° 0.3 mm 1 mps 587 mmHg 78%
    18:00 +13°C° 0.1 mm 1 mps 587 mmHg 81%
    19:00 +12°C° 0.1 mm 1 mps 587 mmHg 83%
    20:00 +12°C° 0.1 mm 1 mps 587 mmHg 86%
    21:00 +11°C° 0 mm 1 mps 586 mmHg 87%
    22:00 +10°C° 0 mm 1 mps 586 mmHg 88%
    23:00 +10°C° 0 mm 1 mps 585 mmHg 90%

    Day after tomorrow, 4 April, Saturday

    Time Temperature Precipitation Wind Pressure Humidity
    00:00 +9°C° 0 mm 1 mps 585 mmHg 90%
    01:00 +9°C° 0 mm 1 mps 585 mmHg 90%
    02:00 +9°C° 0 mm 1 mps 585 mmHg 90%
    03:00 +9°C° 0 mm 1 mps 584 mmHg 90%
    04:00 +9°C° 0 mm 1 mps 584 mmHg 90%
    05:00 +9°C° 0 mm 1 mps 584 mmHg 91%
    06:00 +10°C° 0 mm 1 mps 585 mmHg 86%
    07:00 +11°C° 0 mm 1 mps 586 mmHg 82%
    08:00 +11°C° 0 mm 0 mps 586 mmHg 78%
    09:00 +13°C° 0.2 mm 1 mps 586 mmHg 74%
    10:00 +15°C° 0.2 mm 1 mps 587 mmHg 69%
    11:00 +16°C° 0.2 mm 1 mps 587 mmHg 65%
    12:00 +16°C° 0.7 mm 1 mps 586 mmHg 65%
    13:00 +16°C° 0.7 mm 1 mps 586 mmHg 64%
    14:00 +16°C° 0.7 mm 1 mps 586 mmHg 64%
    15:00 +16°C° 0.9 mm 1 mps 585 mmHg 69%
    16:00 +15°C° 0.9 mm 1 mps 585 mmHg 73%
    17:00 +15°C° 0.9 mm 1 mps 585 mmHg 77%
    18:00 +14°C° 0.3 mm 1 mps 585 mmHg 80%
    19:00 +13°C° 0.3 mm 1 mps 585 mmHg 84%
    20:00 +12°C° 0.3 mm 1 mps 585 mmHg 87%
    21:00 +11°C° 0.1 mm 1 mps 584 mmHg 87%
    22:00 +11°C° 0.1 mm 1 mps 584 mmHg 87%
    23:00 +10°C° 0.1 mm 1 mps 584 mmHg 86%

    5 April, Sunday

    Time Temperature Precipitation Wind Pressure Humidity
    00:00 +10°C° 0 mm 1 mps 583 mmHg 87%
    01:00 +9°C° 0 mm 1 mps 583 mmHg 87%
    02:00 +8°C° 0 mm 1 mps 582 mmHg 87%
    03:00 +8°C° 0 mm 1 mps 582 mmHg 88%
    04:00 +8°C° 0 mm 1 mps 582 mmHg 88%
    05:00 +8°C° 0 mm 1 mps 581 mmHg 88%
    06:00 +9°C° 0 mm 1 mps 583 mmHg 81%
    07:00 +11°C° 0 mm 1 mps 584 mmHg 74%
    08:00 +12°C° 0 mm 0 mps 585 mmHg 68%
    09:00 +14°C° 0 mm 1 mps 585 mmHg 62%
    10:00 +16°C° 0 mm 1 mps 585 mmHg 56%
    11:00 +17°C° 0 mm 2 mps 586 mmHg 51%
    12:00 +18°C° 0 mm 2 mps 585 mmHg 50%
    13:00 +19°C° 0 mm 1 mps 585 mmHg 50%
    14:00 +19°C° 0 mm 1 mps 585 mmHg 49%
    15:00 +18°C° 0 mm 2 mps 584 mmHg 52%
    16:00 +17°C° 0 mm 2 mps 584 mmHg 54%
    17:00 +17°C° 0 mm 3 mps 584 mmHg 56%
    18:00 +16°C° 0 mm 2 mps 584 mmHg 60%
    19:00 +15°C° 0 mm 2 mps 584 mmHg 63%
    20:00 +14°C° 0 mm 2 mps 584 mmHg 66%
    21:00 +13°C° 0 mm 2 mps 583 mmHg 68%
    22:00 +12°C° 0 mm 2 mps 582 mmHg 70%
    23:00 +11°C° 0 mm 1 mps 582 mmHg 72%

    6 April, Monday

    Time Temperature Precipitation Wind Pressure Humidity
    00:00 +10°C° 0 mm 2 mps 581 mmHg 73%
    01:00 +10°C° 0 mm 2 mps 581 mmHg 73%
    02:00 +10°C° 0 mm 3 mps 581 mmHg 73%
    03:00 +9°C° 0 mm 3 mps 581 mmHg 73%
    04:00 +9°C° 0 mm 3 mps 580 mmHg 73%
    05:00 +9°C° 0 mm 3 mps 580 mmHg 73%
    06:00 +11°C° 0 mm 3 mps 581 mmHg 68%
    07:00 +12°C° 0 mm 4 mps 582 mmHg 63%
    08:00 +14°C° 0 mm 4 mps 583 mmHg 59%
    09:00 +15°C° 0 mm 6 mps 583 mmHg 55%
    10:00 +16°C° 0 mm 7 mps 583 mmHg 51%
    11:00 +18°C° 0 mm 9 mps 584 mmHg 47%
    12:00 +17°C° 0 mm 8 mps 583 mmHg 48%
    13:00 +17°C° 0 mm 8 mps 583 mmHg 50%
    14:00 +17°C° 0 mm 8 mps 582 mmHg 51%
    15:00 +16°C° 0.1 mm 8 mps 582 mmHg 55%
    16:00 +16°C° 0.1 mm 7 mps 582 mmHg 58%
    17:00 +15°C° 0.1 mm 7 mps 581 mmHg 61%
    18:00 +14°C° 0.1 mm 6 mps 581 mmHg 64%
    19:00 +13°C° 0.1 mm 4 mps 582 mmHg 67%
    20:00 +12°C° 0.1 mm 3 mps 582 mmHg 70%
    21:00 +11°C° 0 mm 3 mps 582 mmHg 69%
    22:00 +12°C° 0 mm 2 mps 581 mmHg 68%
    23:00 +10°C° 0 mm 2 mps 581 mmHg 67%

    7 April, Tuesday

    Time Temperature Precipitation Wind Pressure Humidity
    00:00 +9°C° 0 mm 2 mps 581 mmHg 67%
    01:00 +9°C° 0 mm 2 mps 581 mmHg 68%
    02:00 +8°C° 0 mm 2 mps 580 mmHg 69%
    03:00 +8°C° 0 mm 2 mps 580 mmHg 71%
    04:00 +7°C° 0 mm 2 mps 580 mmHg 72%
    05:00 +7°C° 0 mm 2 mps 580 mmHg 74%
    06:00 +8°C° 0 mm 2 mps 581 mmHg 71%
    07:00 +9°C° 0 mm 2 mps 582 mmHg 67%
    08:00 +12°C° 0 mm 2 mps 583 mmHg 64%
    09:00 +12°C° 0 mm 3 mps 584 mmHg 54%
    10:00 +14°C° 0 mm 4 mps 585 mmHg 45%
    11:00 +15°C° 0 mm 4 mps 586 mmHg 36%
    12:00 +16°C° 0 mm 5 mps 586 mmHg 34%
    13:00 +16°C° 0 mm 6 mps 586 mmHg 33%
    14:00 +16°C° 0 mm 6 mps 586 mmHg 31%
    15:00 +15°C° 0 mm 5 mps 586 mmHg 37%
    16:00 +14°C° 0 mm 4 mps 586 mmHg 43%
    17:00 +13°C° 0 mm 3 mps 586 mmHg 48%
    18:00 +11°C° 0.1 mm 3 mps 585 mmHg 62%
    19:00 +9°C° 0.1 mm 2 mps 585 mmHg 76%
    20:00 +8°C° 0.1 mm 1 mps 585 mmHg 90%
    21:00 +7°C° 0 mm 1 mps 585 mmHg 89%
    22:00 +7°C° 0 mm 1 mps 586 mmHg 87%
    23:00 +7°C° 0 mm 1 mps 586 mmHg 86%
    Show more